Weather History for Midland, MI

Change the Weather History Date:

Sunday, June 16, 2013

  Actual Average (KMBS) Record (KMBS)
Temperature  
Mean Temperature 73 °F 68 °F  
Max Temperature 83 °F 78 °F 90 °F (2007)
Min Temperature 63 °F 57 °F 50 °F (2003)
Degree Days  
Heating Degree Days 0    
Month to date heating degree days  
Since 1 June heating degree days  
Since 1 July heating degree days  
Cooling Degree Days 8    
Month to date cooling degree days  
Year to date cooling degree days  
Since 1 June cooling degree days  
Growing Degree Days 23 (Base 50)    
Moisture  
Dew Point 60 °F    
Average Humidity 70    
Maximum Humidity 99    
Minimum Humidity 34    
Precipitation  
Precipitation 0.51 in 0.09 in 0.43 in (2013)
Month to date precipitation 1.59  
Year to date precipitation 13.24  
Snow  
Snow 0.00 in - - ()
Month to date snowfall  
Since 1 June snowfall  
Since 1 July snowfall  
Snow Depth -    
Sea Level Pressure  
Sea Level Pressure 29.81 in    
Wind  
Wind Speed 6 mph (West)    
Max Wind Speed 18 mph    
Max Gust Speed 28 mph    
Visibility 9 miles    
Events Rain    
T = Trace of Precipitation, MM = Missing Value Source: NWS Daily Summary

Daily Weather History Graph

Daily Weather History Graph

Search for Another Location

Airport:

Trip Planner

Search our weather history database for the weather conditions in past years. The results will help you decide how hot, cold, wet, or windy it might be!

Date:

Astronomy

Jun. 16, 2013 Rise Set
Actual Time 5:54 AM EDT 9:20 PM EDT
Civil Twilight 5:18 AM EDT 9:56 PM EDT
Nautical Twilight 4:31 AM EDT 10:44 PM EDT
Astronomical Twilight 3:32 AM EDT 11:43 PM EDT
Moon 1:43 PM EDT (6/16) 1:12 AM EDT (6/16)
Length of Visible Light 16h 38m
Length of Day
15h 26m
Waxing Crescent, 49% of the Moon is Illuminated
Jun 16
Waxing Crescent
Jun 16
First Quarter
Jun 23
Full
Jun 30
Last Quarter
Jul 8
New

Hourly Weather History & Observations

Time (EDT) Temp. Heat Index Dew Point Humidity Pressure Visibility Wind Dir Wind Speed Gust Speed Precip Events Conditions
12:12 AM 67.3 °F - 60.8 °F 80% 29.87 in 10.0 mi South 5.8 mph - N/A   Clear
12:33 AM 67.3 °F - 60.8 °F 80% 29.86 in 10.0 mi South 4.6 mph - N/A   Scattered Clouds
12:52 AM 65.8 °F - 61.5 °F 86% 29.83 in 10.0 mi SSE 4.6 mph - 0.01 in   Scattered Clouds
1:12 AM 64.9 °F - 62.6 °F 92% 29.85 in 10.0 mi SSW 4.6 mph - N/A   Scattered Clouds
1:32 AM 64.8 °F - 62.6 °F 93% 29.85 in 10.0 mi SSW 3.5 mph - N/A Rain Light Rain
1:52 AM 64.8 °F - 62.6 °F 93% 29.85 in 10.0 mi SW 3.5 mph - N/A Rain Light Rain
2:11 AM 64.8 °F - 63.0 °F 94% 29.84 in 5.0 mi WSW 3.5 mph - 0.02 in Rain Heavy Rain
2:32 AM 64.4 °F - 63.0 °F 95% 29.82 in 5.0 mi Calm Calm - 0.05 in Rain Heavy Rain
2:52 AM 64.2 °F - 63.0 °F 96% 29.79 in 7.0 mi Calm Calm - 0.07 in Rain Light Rain
3:12 AM 64.0 °F - 63.3 °F 97% 29.79 in 4.0 mi South 4.6 mph - 0.01 in Rain Rain
3:32 AM 63.9 °F - 63.1 °F 97% 29.78 in 4.0 mi South 3.5 mph - 0.03 in Rain Rain
3:51 AM 64.0 °F - 63.5 °F 98% 29.76 in 5.0 mi SSE 6.9 mph - 0.04 in Rain Rain
4:12 AM 64.4 °F - 63.5 °F 97% 29.77 in 2.5 mi Calm Calm - 0.01 in Rain Heavy Rain
4:32 AM 64.0 °F - 63.5 °F 98% 29.76 in 2.5 mi Calm Calm - 0.03 in Rain Heavy Rain
4:51 AM 64.2 °F - 63.7 °F 98% 29.75 in 5.0 mi South 5.8 mph - 0.04 in Rain Rain
5:12 AM 64.4 °F - 63.9 °F 98% 29.75 in 4.0 mi Calm Calm - 0.01 in   Drizzle
5:32 AM 64.8 °F - 64.4 °F 99% 29.74 in 4.0 mi WSW 3.5 mph - 0.02 in   Overcast
5:51 AM 64.8 °F - 64.4 °F 99% 29.74 in 7.0 mi West 4.6 mph - 0.04 in   Overcast
6:12 AM 64.6 °F - 64.2 °F 99% 29.75 in 5.0 mi WNW 4.6 mph - 0.01 in   Overcast
6:32 AM 64.6 °F - 64.2 °F 99% 29.75 in 5.0 mi NW 3.5 mph - 0.03 in   Overcast
6:52 AM 64.8 °F - 64.4 °F 99% 29.77 in 10.0 mi WNW 6.9 mph - 0.04 in   Overcast
7:12 AM 64.9 °F - 64.0 °F 97% 29.77 in 10.0 mi WNW 5.8 mph - 0.01 in   Overcast
7:31 AM 65.3 °F - 64.4 °F 97% 29.78 in 7.0 mi West 5.8 mph - 0.02 in   Overcast
7:52 AM 65.3 °F - 64.4 °F 97% 29.79 in 5.0 mi WNW 5.8 mph - 0.03 in   Overcast
8:12 AM 65.3 °F - 64.4 °F 97% 29.79 in 10.0 mi WNW 4.6 mph - 0.01 in   Overcast
8:32 AM 66.0 °F - 64.9 °F 96% 29.79 in 10.0 mi WNW 4.6 mph - 0.02 in   Overcast
8:52 AM 67.1 °F - 65.3 °F 94% 29.80 in 10.0 mi West 5.8 mph - 0.03 in   Overcast
9:12 AM 68.4 °F - 65.5 °F 90% 29.80 in 10.0 mi West 9.2 mph - N/A   Overcast
9:32 AM 69.3 °F - 65.5 °F 88% 29.80 in 10.0 mi WNW 8.1 mph - 0.01 in   Overcast
9:52 AM 70.3 °F - 65.7 °F 85% 29.81 in 10.0 mi West 8.1 mph - 0.02 in   Overcast
10:11 AM 71.2 °F - 65.1 °F 81% 29.81 in 10.0 mi West 11.5 mph - 0.01 in   Overcast
10:32 AM 72.3 °F - 64.8 °F 77% 29.81 in 10.0 mi NW 11.5 mph 18.4 mph 0.02 in   Mostly Cloudy
10:52 AM 74.1 °F - 65.1 °F 73% 29.81 in 10.0 mi WNW 9.2 mph 16.1 mph 0.03 in   Scattered Clouds
11:12 AM 73.6 °F - 64.2 °F 72% 29.81 in 10.0 mi WNW 10.4 mph 16.1 mph 0.01 in   Mostly Cloudy
11:32 AM 74.3 °F - 64.0 °F 70% 29.82 in 10.0 mi West 10.4 mph - 0.02 in   Mostly Cloudy
11:52 AM 75.0 °F - 64.2 °F 69% 29.81 in 10.0 mi NNW 8.1 mph - 0.04 in   Scattered Clouds
12:12 PM 75.9 °F - 64.0 °F 67% 29.81 in 10.0 mi West 8.1 mph - 0.01 in   Scattered Clouds
12:32 PM 77.2 °F - 64.0 °F 64% 29.82 in 10.0 mi WSW 5.8 mph - 0.02 in   Scattered Clouds
12:52 PM 78.3 °F - 64.0 °F 61% 29.82 in 10.0 mi West 9.2 mph - 0.03 in   Scattered Clouds
1:12 PM 79.7 °F - 63.7 °F 58% 29.82 in 10.0 mi WNW 9.2 mph 16.1 mph N/A   Scattered Clouds
1:32 PM 80.2 °F 81.8 °F 63.9 °F 57% 29.82 in 10.0 mi WSW 11.5 mph 17.3 mph 0.02 in   Mostly Cloudy
1:52 PM 80.8 °F 82.2 °F 63.5 °F 56% 29.81 in 10.0 mi West 12.7 mph 16.1 mph 0.02 in   Mostly Cloudy
2:12 PM 81.9 °F 83.2 °F 63.7 °F 54% 29.81 in 10.0 mi SW 10.4 mph - N/A   Mostly Cloudy
2:32 PM 82.2 °F 82.7 °F 60.6 °F 48% 29.80 in 10.0 mi WSW 13.8 mph 17.3 mph 0.01 in   Mostly Cloudy
2:52 PM 82.4 °F 82.5 °F 59.2 °F 45% 29.81 in 10.0 mi WNW 10.4 mph - 0.02 in   Mostly Cloudy
3:12 PM 81.9 °F 81.8 °F 58.1 °F 44% 29.81 in 10.0 mi WSW 10.4 mph 20.7 mph 0.01 in   Scattered Clouds
3:32 PM 82.4 °F 81.8 °F 55.8 °F 40% 29.81 in 10.0 mi West 13.8 mph 20.7 mph 0.01 in   Scattered Clouds
3:53 PM 82.9 °F 82.1 °F 55.8 °F 39% 29.81 in 10.0 mi West 10.4 mph - 0.02 in   Scattered Clouds
4:12 PM 83.3 °F 82.3 °F 55.4 °F 38% 29.81 in 10.0 mi West 9.2 mph 16.1 mph N/A   Scattered Clouds
4:32 PM 83.7 °F 82.8 °F 56.5 °F 39% 29.81 in 10.0 mi WNW 10.4 mph 25.3 mph 0.01 in   Scattered Clouds
4:53 PM 82.9 °F 82.0 °F 55.0 °F 38% 29.81 in 10.0 mi WSW 16.1 mph 24.2 mph 0.01 in   Scattered Clouds
5:12 PM 83.1 °F 82.4 °F 56.3 °F 40% 29.81 in 10.0 mi West 11.5 mph 19.6 mph N/A   Clear
5:32 PM 82.4 °F 81.8 °F 55.9 °F 40% 29.81 in 10.0 mi WSW 12.7 mph 21.9 mph 0.01 in   Scattered Clouds
5:53 PM 82.4 °F 81.6 °F 54.7 °F 38% 29.81 in 10.0 mi West 18.4 mph 27.6 mph 0.01 in   Scattered Clouds
6:12 PM 82.4 °F 81.6 °F 54.1 °F 38% 29.81 in 10.0 mi West 13.8 mph 23.0 mph N/A   Scattered Clouds
6:32 PM 81.7 °F - 52.5 °F 36% 29.82 in 10.0 mi West 15.0 mph 24.2 mph 0.01 in   Clear
6:52 PM 81.5 °F - 50.7 °F 34% 29.82 in 10.0 mi West 11.5 mph 23.0 mph 0.01 in   Clear
7:12 PM 80.8 °F - 50.7 °F 35% 29.82 in 10.0 mi West 12.7 mph 23.0 mph N/A   Clear
7:32 PM 80.6 °F - 50.2 °F 35% 29.82 in 10.0 mi West 12.7 mph 21.9 mph N/A   Clear
7:52 PM 79.9 °F - 51.1 °F 37% 29.83 in 10.0 mi West 10.4 mph - N/A   Clear
8:12 PM 78.8 °F - 52.2 °F 39% 29.83 in 10.0 mi West 8.1 mph - N/A   Clear
8:32 PM 77.4 °F - 53.4 °F 43% 29.83 in 10.0 mi West 6.9 mph - N/A   Clear
8:52 PM 75.6 °F - 54.3 °F 48% 29.83 in 10.0 mi West 4.6 mph - N/A   Clear
9:12 PM 74.1 °F - 54.7 °F 51% 29.84 in 10.0 mi WSW 3.5 mph - N/A   Clear
9:32 PM 71.2 °F - 55.6 °F 58% 29.84 in 10.0 mi SW 3.5 mph - N/A   Clear
9:52 PM 70.0 °F - 55.9 °F 61% 29.85 in 10.0 mi SW 4.6 mph - N/A   Clear
10:12 PM 70.5 °F - 56.7 °F 61% 29.85 in 10.0 mi WSW 8.1 mph - N/A   Clear
10:32 PM 70.2 °F - 58.1 °F 65% 29.86 in 10.0 mi WSW 4.6 mph - N/A   Clear
10:52 PM 69.8 °F - 58.6 °F 68% 29.86 in 10.0 mi SW 4.6 mph - N/A   Clear
11:13 PM 69.1 °F - 59.0 °F 70% 29.87 in 10.0 mi West 5.8 mph - N/A   Clear
11:32 PM 69.1 °F - 59.9 °F 72% 29.86 in 10.0 mi WSW 5.8 mph - N/A   Mostly Cloudy
11:52 PM 68.9 °F - 59.7 °F 72% 29.86 in 10.0 mi WSW 8.1 mph - N/A   Scattered Clouds